This is the latest recevied weather packets stored in our database for station/object N2QDK-2. If no packets are shown the sender has not sent any weather packets the latest 10 day(s).
| Time | Temp. | Humidity | Pressure | Rain* | Wind** | Luminosity | Snow |
|---|---|---|---|---|---|---|---|
| 1777955116 | 18.33° C | 59% | 1002.9 hPa | 0 mm | - | - | - |
| 1777954516 | 18.33° C | 59% | 1002.8 hPa | 0 mm | - | - | - |
| 1777953916 | 18.33° C | 58% | 1003 hPa | 0 mm | - | - | - |
| 1777953317 | 18.33° C | 58% | 1003.1 hPa | 0 mm | - | - | - |
| 1777952716 | 18.33° C | 55% | 1003.1 hPa | 0 mm | - | - | - |
| 1777952116 | 18.33° C | 52% | 1003.2 hPa | 0 mm | - | - | - |
| 1777951516 | 17.78° C | 51% | 1003.3 hPa | 0 mm | - | - | - |
| 1777950917 | 17.22° C | 52% | 1002.8 hPa | 0 mm | - | - | - |
| 1777950316 | 17.22° C | 53% | 1002.8 hPa | 0 mm | - | - | - |
| 1777949717 | 16.67° C | 54% | 1002.9 hPa | 0 mm | - | - | - |
| 1777949118 | 16.67° C | 55% | 1002.9 hPa | 0 mm | - | - | - |
| 1777948516 | 16.67° C | 55% | 1002.8 hPa | 0 mm | - | - | - |
| 1777947917 | 16.67° C | 56% | 1002.9 hPa | 0 mm | - | - | - |
| 1777947316 | 16.11° C | 56% | 1003 hPa | 0 mm | - | - | - |
| 1777946716 | 15.56° C | 58% | 1003.1 hPa | 0 mm | - | - | - |
| 1777946116 | 15.56° C | 60% | 1003.3 hPa | 0 mm | - | - | - |
| 1777945516 | 16.11° C | 59% | 1003.3 hPa | 0 mm | - | - | - |
| 1777944916 | 16.11° C | 55% | 1003.2 hPa | 0 mm | - | - | - |
| 1777944316 | 16.67° C | 55% | 1003.2 hPa | 0 mm | - | - | - |
| 1777943716 | 17.22° C | 52% | 1003.1 hPa | 0 mm | - | - | - |
| 1777943116 | 17.78° C | 51% | 1002.9 hPa | 0 mm | - | - | - |
| 1777942516 | 18.33° C | 50% | 1002.9 hPa | 0 mm | - | - | - |
| 1777941916 | 18.89° C | 47% | 1002.9 hPa | 0 mm | - | - | - |
| 1777941316 | 19.44° C | 47% | 1002.9 hPa | 0 mm | - | - | - |
| 1777940716 | 20° C | 44% | 1002.9 hPa | 0 mm | - | - | - |
* Rain latest hour (hover to see other rain measurements)
** Current wind speed in m/s (hover to see current wind gust speed)